User: anonymous   Login
Location: Lawrence
(38.9720°N, 95.2350°W)
Time: 12:19:10
(UTC-05:00)
Language:

ALOS - Orbit

View from above orbital plane
View from above orbital plane
View from above satellite
View from above satellite

Ground track
Ground track

The orbit data is extracted from the following two-line orbital elements,

1 28931U 06002A   15086.20922904  .00000859  00000-0  18127-3 0  9993
2 28931 097.9436 138.8548 0001762 062.8746 297.2636 14.61745874488663
Epoch (UTC): 27 March 2015 05:01:17
Eccentricity: 0.0001762
inclination: 97.9436°
perigee height: 686 km
apogee height: 689 km
right ascension of ascending node: 138.8548°
argument of perigee: 62.8746°
revolutions per day: 14.61745874
mean anomaly at epoch: 297.2636°
orbit number at epoch: 48866

The dashed part of the orbit path shows where the satellite is in the earth's shadow,  

DLR